�������l�o���
Date,Time,MP-1(��Sv/h),MP-2(��Sv/h),MP-3(��Sv/h),MP-4(��Sv/h),MP-5(��Sv/h),MP-6(��Sv/h),MP-7(��Sv/h),MP-8(��Sv/h),����,����(m/s),���J
2019/10/04,00:00,0.753,1.073,0.740,1.314,0.968,0.427,0.741,0.698,��,11.3,�L
2019/10/04,00:10,0.753,1.073,0.740,1.314,0.969,0.427,0.742,0.698,��쓌,12.7,�L
2019/10/04,00:20,0.754,1.070,0.740,1.313,0.970,0.427,0.741,0.700,��,13.3,�L
2019/10/04,00:30,0.753,1.069,0.740,1.315,0.968,0.427,0.741,0.699,��,12.7,�L
2019/10/04,00:40,0.753,1.072,0.739,1.315,0.967,0.428,0.741,0.700,��,9.9,��
2019/10/04,00:50,0.752,1.072,0.742,1.314,0.969,0.425,0.742,0.699,��,11.6,�L
2019/10/04,01:00,0.752,1.070,0.740,1.313,0.969,0.426,0.741,0.698,��,8.3,�L
2019/10/04,01:10,0.752,1.071,0.742,1.316,0.967,0.427,0.740,0.700,��쓌,8.4,��
2019/10/04,01:20,0.753,1.074,0.739,1.313,0.966,0.428,0.741,0.699,��,9.1,��
2019/10/04,01:30,0.752,1.073,0.742,1.316,0.967,0.428,0.743,0.699,��,8.9,��
2019/10/04,01:40,0.754,1.074,0.741,1.316,0.968,0.426,0.741,0.700,��,9.4,��
2019/10/04,01:50,0.751,1.071,0.741,1.315,0.968,0.427,0.741,0.700,��쓌,9.7,��
2019/10/04,02:00,0.754,1.072,0.739,1.314,0.969,0.425,0.741,0.700,��,8.4,��
2019/10/04,02:10,0.752,1.073,0.739,1.313,0.967,0.427,0.741,0.700,��,8.1,��
2019/10/04,02:20,0.752,1.075,0.740,1.315,0.968,0.428,0.741,0.699,��,7.8,��
2019/10/04,02:30,0.752,1.073,0.741,1.315,0.967,0.426,0.740,0.701,��,7.5,��
2019/10/04,02:40,0.753,1.073,0.741,1.314,0.970,0.426,0.742,0.699,��,9.5,��
2019/10/04,02:50,0.755,1.075,0.742,1.313,0.968,0.428,0.741,0.698,��,10.7,��
2019/10/04,03:00,0.751,1.072,0.741,1.314,0.968,0.427,0.741,0.700,��,10.8,��
2019/10/04,03:10,0.754,1.074,0.742,1.315,0.969,0.425,0.740,0.698,��,9.0,��
2019/10/04,03:20,0.755,1.075,0.740,1.314,0.969,0.427,0.741,0.698,��,11.8,��
2019/10/04,03:30,0.752,1.073,0.740,1.312,0.968,0.427,0.741,0.700,��,13.3,��
2019/10/04,03:40,0.753,1.073,0.742,1.314,0.968,0.426,0.740,0.699,��쐼,8.9,��
2019/10/04,03:50,0.754,1.075,0.742,1.314,0.968,0.427,0.741,0.698,��,8.1,��
2019/10/04,04:00,0.753,1.073,0.740,1.316,0.970,0.426,0.739,0.699,��쓌,7.0,��
2019/10/04,04:10,0.755,1.074,0.741,1.316,0.969,0.426,0.741,0.698,��,7.6,��
2019/10/04,04:20,0.754,1.072,0.739,1.312,0.969,0.426,0.743,0.698,��,8.0,��
2019/10/04,04:30,0.754,1.074,0.739,1.315,0.965,0.424,0.741,0.698,��,9.8,��
2019/10/04,04:40,0.754,1.073,0.740,1.314,0.967,0.426,0.741,0.701,��,8.8,��
2019/10/04,04:50,0.752,1.072,0.741,1.312,0.968,0.427,0.743,0.700,��,7.1,��
2019/10/04,05:00,0.751,1.073,0.740,1.316,0.969,0.427,0.743,0.699,��,6.8,��
2019/10/04,05:10,0.754,1.075,0.739,1.315,0.970,0.426,0.741,0.699,��,6.4,��
2019/10/04,05:20,0.753,1.074,0.740,1.316,0.968,0.427,0.742,0.699,��,6.5,��
2019/10/04,05:30,0.753,1.077,0.741,1.314,0.968,0.427,0.741,0.700,��,6.3,��
2019/10/04,05:40,0.754,1.073,0.740,1.314,0.968,0.428,0.741,0.699,��쓌,6.3,��
2019/10/04,05:50,0.753,1.075,0.741,1.316,0.968,0.428,0.741,0.701,��쓌,7.7,��
2019/10/04,06:00,0.752,1.075,0.738,1.317,0.968,0.427,0.740,0.700,��쓌,7.5,��
2019/10/04,06:10,0.754,1.075,0.741,1.315,0.969,0.427,0.741,0.700,��,6.2,��
2019/10/04,06:20,0.753,1.075,0.741,1.316,0.968,0.427,0.741,0.700,��쐼,6.9,��
2019/10/04,06:30,0.754,1.075,0.740,1.317,0.969,0.427,0.742,0.700,��,8.1,��
2019/10/04,06:40,0.755,1.073,0.739,1.316,0.968,0.426,0.742,0.701,��쐼,9.5,��
2019/10/04,06:50,0.755,1.076,0.742,1.315,0.966,0.427,0.743,0.699,��,10.5,��
2019/10/04,07:00,0.754,1.076,0.741,1.314,0.970,0.428,0.741,0.701,��,10.6,��
2019/10/04,07:10,0.756,1.074,0.740,1.317,0.969,0.427,0.741,0.701,��,9.4,��
2019/10/04,07:20,0.755,1.074,0.741,1.317,0.969,0.426,0.743,0.700,��,8.6,��
2019/10/04,07:30,0.753,1.074,0.741,1.315,0.970,0.426,0.742,0.699,��,11.7,��
2019/10/04,07:40,0.753,1.077,0.741,1.317,0.969,0.427,0.743,0.699,��,10.2,��
2019/10/04,07:50,0.754,1.074,0.739,1.316,0.968,0.427,0.742,0.699,��쐼,10.2,��
2019/10/04,08:00,0.754,1.073,0.739,1.316,0.968,0.426,0.739,0.700,��,9.7,�L
2019/10/04,08:10,0.753,1.071,0.740,1.316,0.970,0.426,0.739,0.699,��,9.2,�L
2019/10/04,08:20,0.754,1.067,0.741,1.317,0.967,0.422,0.742,0.699,��,9.6,�L
2019/10/04,08:30,0.752,1.066,0.740,1.314,0.964,0.422,0.741,0.697,��쓌,9.4,�L
2019/10/04,08:40,0.752,1.066,0.736,1.312,0.966,0.421,0.741,0.699,��,10.8,�L
2019/10/04,08:50,0.754,1.067,0.735,1.313,0.964,0.424,0.739,0.697,��,10.7,�L
2019/10/04,09:00,0.756,1.068,0.737,1.314,0.966,0.426,0.741,0.698,��,10.3,�L
2019/10/04,09:10,0.754,1.066,0.739,1.314,0.964,0.428,0.739,0.699,��,10.6,��
2019/10/04,09:20,0.752,1.064,0.740,1.315,0.966,0.427,0.740,0.699,��,12.1,��
2019/10/04,09:30,0.749,1.064,0.740,1.313,0.966,0.427,0.741,0.698,��,12.1,��
2019/10/04,09:40,0.746,1.062,0.739,1.314,0.967,0.426,0.741,0.699,��,9.2,��
2019/10/04,09:50,0.748,1.061,0.738,1.314,0.966,0.428,0.740,0.695,��,13.9,�L
2019/10/04,10:00,0.749,1.062,0.738,1.314,0.967,0.428,0.741,0.698,��,12.7,�L
2019/10/04,10:10,0.751,1.062,0.737,1.314,0.967,0.427,0.741,0.700,��쐼,10.0,��
2019/10/04,10:20,0.750,1.063,0.737,1.315,0.969,0.426,0.741,0.699,��,9.6,�L
2019/10/04,10:30,0.751,1.066,0.736,1.314,0.966,0.427,0.741,0.699,��,13.8,�L
2019/10/04,10:40,0.750,1.063,0.737,1.315,0.967,0.426,0.742,0.697,��,10.5,��
2019/10/04,10:50,0.751,1.063,0.736,1.316,0.969,0.426,0.742,0.699,��,9.9,��
2019/10/04,11:00,0.750,1.065,0.736,1.315,0.969,0.427,0.741,0.698,��,10.6,��
2019/10/04,11:10,0.752,1.065,0.737,1.316,0.969,0.426,0.740,0.697,��,11.0,��
2019/10/04,11:20,0.752,1.067,0.739,1.316,0.966,0.426,0.741,0.696,��,8.8,��
2019/10/04,11:30,0.753,1.068,0.738,1.316,0.968,0.428,0.742,0.698,��,9.8,�L
2019/10/04,11:40,0.751,1.067,0.738,1.316,0.969,0.426,0.740,0.698,��,11.0,�L
2019/10/04,11:50,0.752,1.069,0.737,1.315,0.969,0.428,0.741,0.698,��,9.1,�L
2019/10/04,12:00,0.756,1.069,0.739,1.313,0.969,0.427,0.741,0.698,��,8.9,�L
2019/10/04,12:10,0.756,1.068,0.738,1.319,0.968,0.427,0.742,0.697,��쓌,9.2,�L
2019/10/04,12:20,0.755,1.069,0.738,1.317,0.968,0.426,0.742,0.696,��쓌,11.6,��
2019/10/04,12:30,0.757,1.069,0.740,1.314,0.966,0.427,0.741,0.699,��,11.4,�L
2019/10/04,12:40,0.755,1.071,0.740,1.319,0.966,0.427,0.742,0.699,��,10.2,�L
2019/10/04,12:50,0.751,1.063,0.738,1.314,0.961,0.426,0.738,0.697,��,11.4,�L
2019/10/04,13:00,0.750,1.059,0.736,1.311,0.956,0.427,0.738,0.696,��쓌,12.8,�L
2019/10/04,13:10,0.747,1.055,0.736,1.311,0.958,0.426,0.738,0.696,��,11.7,�L
2019/10/04,13:20,0.746,1.059,0.736,1.309,0.958,0.429,0.739,0.694,��,11.9,�L
2019/10/04,13:30,0.749,1.057,0.733,1.309,0.958,0.427,0.739,0.694,��,11.6,�L
2019/10/04,13:40,0.746,1.056,0.736,1.308,0.956,0.428,0.740,0.696,��,10.0,�L
2019/10/04,13:50,0.747,1.056,0.735,1.310,0.957,0.427,0.739,0.695,��,11.1,�L
2019/10/04,14:00,0.748,1.055,0.735,1.312,0.957,0.427,0.739,0.696,��,9.5,�L
2019/10/04,14:10,0.746,1.059,0.732,1.308,0.956,0.426,0.741,0.695,��쓌,11.6,�L
2019/10/04,14:20,0.749,1.061,0.734,1.308,0.958,0.426,0.739,0.696,��쓌,12.2,�L
2019/10/04,14:30,0.745,1.059,0.735,1.310,0.958,0.425,0.739,0.696,��쓌,10.8,�L
2019/10/04,14:40,0.748,1.057,0.735,1.309,0.961,0.427,0.739,0.696,��,9.9,�L
2019/10/04,14:50,0.749,1.058,0.736,1.310,0.957,0.428,0.740,0.696,��,9.2,�L
2019/10/04,15:00,0.750,1.060,0.736,1.312,0.959,0.427,0.740,0.697,��,8.8,�L
2019/10/04,15:10,0.748,1.057,0.737,1.309,0.959,0.428,0.741,0.697,��,9.2,�L
2019/10/04,15:20,0.746,1.058,0.736,1.310,0.959,0.426,0.741,0.695,��,10.2,��
2019/10/04,15:30,0.747,1.060,0.736,1.311,0.957,0.427,0.739,0.697,��,8.4,�L
2019/10/04,15:40,0.752,1.061,0.738,1.311,0.958,0.427,0.739,0.696,��,10.5,��
2019/10/04,15:50,0.752,1.059,0.739,1.309,0.958,0.427,0.738,0.696,��,11.0,�L
2019/10/04,16:00,0.752,1.063,0.737,1.311,0.959,0.425,0.739,0.695,��,9.2,��
2019/10/04,16:10,0.752,1.060,0.736,1.309,0.957,0.427,0.742,0.697,��,8.6,��
2019/10/04,16:20,0.751,1.062,0.735,1.309,0.958,0.426,0.738,0.696,��,11.3,��
2019/10/04,16:30,0.754,1.064,0.737,1.309,0.957,0.427,0.740,0.696,��,9.8,��
2019/10/04,16:40,0.751,1.065,0.736,1.308,0.956,0.429,0.740,0.697,��,9.6,��
2019/10/04,16:50,0.751,1.063,0.736,1.312,0.959,0.427,0.740,0.695,��,8.9,��
2019/10/04,17:00,0.752,1.063,0.737,1.309,0.958,0.428,0.740,0.694,��,11.1,��
2019/10/04,17:10,0.751,1.064,0.738,1.308,0.959,0.427,0.739,0.697,��,8.9,�L
2019/10/04,17:20,0.754,1.063,0.738,1.310,0.962,0.427,0.739,0.697,��,10.9,�L
2019/10/04,17:30,0.752,1.064,0.737,1.311,0.959,0.427,0.740,0.697,��,10.3,��
2019/10/04,17:40,0.752,1.064,0.738,1.311,0.959,0.428,0.740,0.698,��,7.8,��
2019/10/04,17:50,0.750,1.064,0.739,1.310,0.959,0.427,0.741,0.697,��,7.8,��
2019/10/04,18:00,0.751,1.064,0.736,1.310,0.957,0.427,0.740,0.698,��,8.9,��
2019/10/04,18:10,0.752,1.064,0.739,1.309,0.959,0.428,0.741,0.697,��,8.9,�L
2019/10/04,18:20,0.752,1.063,0.740,1.312,0.960,0.427,0.742,0.697,��,10.2,��
2019/10/04,18:30,0.753,1.065,0.740,1.312,0.962,0.427,0.740,0.699,��,9.4,��
2019/10/04,18:40,0.751,1.061,0.738,1.311,0.961,0.426,0.742,0.699,��,10.0,�L
2019/10/04,18:50,0.753,1.063,0.740,1.308,0.961,0.427,0.740,0.698,��,10.5,�L
2019/10/04,19:00,0.753,1.065,0.740,1.310,0.961,0.427,0.741,0.700,��,11.7,�L
2019/10/04,19:10,0.752,1.062,0.740,1.310,0.959,0.429,0.740,0.698,��,12.0,��
2019/10/04,19:20,0.753,1.063,0.738,1.313,0.961,0.429,0.742,0.699,��,12.4,��
2019/10/04,19:30,0.754,1.063,0.739,1.312,0.961,0.427,0.742,0.699,��,11.6,��
2019/10/04,19:40,0.753,1.065,0.738,1.312,0.961,0.427,0.742,0.699,��,11.3,��
2019/10/04,19:50,0.752,1.064,0.741,1.311,0.960,0.427,0.741,0.699,��,10.0,�L
2019/10/04,20:00,0.753,1.065,0.739,1.312,0.960,0.429,0.741,0.700,��,10.5,�L
2019/10/04,20:10,0.754,1.066,0.740,1.311,0.962,0.427,0.743,0.699,��,11.9,�L
2019/10/04,20:20,0.752,1.066,0.740,1.312,0.960,0.428,0.742,0.700,��,11.6,��
2019/10/04,20:30,0.754,1.064,0.740,1.311,0.960,0.429,0.740,0.700,��,10.9,�L
2019/10/04,20:40,0.752,1.065,0.739,1.311,0.962,0.427,0.743,0.698,��쐼,10.9,�L
2019/10/04,20:50,0.755,1.064,0.740,1.311,0.964,0.428,0.740,0.698,��쐼,11.3,��
2019/10/04,21:00,0.753,1.065,0.738,1.311,0.964,0.427,0.740,0.699,��쐼,10.2,��
2019/10/04,21:10,0.756,1.066,0.740,1.312,0.963,0.428,0.742,0.699,��쐼,9.3,��
2019/10/04,21:20,0.753,1.065,0.740,1.312,0.964,0.427,0.743,0.699,��쐼,11.3,��
2019/10/04,21:30,0.754,1.065,0.739,1.313,0.962,0.427,0.743,0.698,��쐼,9.1,��
2019/10/04,21:40,0.755,1.065,0.738,1.313,0.961,0.427,0.742,0.699,��쐼,6.0,��
2019/10/04,21:50,0.754,1.063,0.740,1.314,0.961,0.427,0.741,0.699,���쐼,5.6,��
2019/10/04,22:00,0.755,1.065,0.739,1.311,0.961,0.427,0.741,0.698,���쐼,3.5,��
2019/10/04,22:10,0.753,1.066,0.740,1.315,0.964,0.427,0.740,0.699,���쐼,1.7,��
2019/10/04,22:20,0.755,1.067,0.740,1.312,0.962,0.428,0.742,0.699,��,1.7,��
2019/10/04,22:30,0.755,1.066,0.740,1.314,0.964,0.429,0.740,0.699,���쐼,1.2,��
2019/10/04,22:40,0.754,1.065,0.741,1.314,0.963,0.430,0.743,0.699,���k��,7.4,��
2019/10/04,22:50,0.755,1.067,0.742,1.315,0.964,0.428,0.741,0.699,�k��,5.9,��
2019/10/04,23:00,0.755,1.069,0.742,1.315,0.961,0.428,0.741,0.700,���k��,8.6,��
2019/10/04,23:10,0.755,1.067,0.743,1.314,0.966,0.429,0.742,0.700,���k��,11.7,��
2019/10/04,23:20,0.756,1.069,0.741,1.317,0.966,0.429,0.742,0.700,���k��,10.8,��
2019/10/04,23:30,0.757,1.068,0.740,1.317,0.965,0.429,0.743,0.701,���k��,9.7,��
2019/10/04,23:40,0.756,1.068,0.741,1.316,0.965,0.429,0.742,0.698,�k��,10.3,��
2019/10/04,23:50,0.757,1.068,0.740,1.317,0.964,0.429,0.743,0.700,�k��,10.5,��
